Year,Month,Day,Hour,Minute,Value (Times are PST for temperature in C)
2017,06,18,14,17,13.70
2017,06,18,14,18,13.70
2017,06,18,14,19,13.70
2017,06,18,14,20,13.70
2017,06,18,14,21,13.80
2017,06,18,14,22,13.80
2017,06,18,14,23,13.70
2017,06,18,14,24,13.70
2017,06,18,14,25,13.70
2017,06,18,14,26,13.70
2017,06,18,14,27,13.70
2017,06,18,14,28,13.80
2017,06,18,14,29,13.80
2017,06,18,14,30,13.90
2017,06,18,14,31,13.90
2017,06,18,14,32,13.90
2017,06,18,14,33,13.90
2017,06,18,14,34,13.90
2017,06,18,14,35,13.90
2017,06,18,14,36,13.90
2017,06,18,14,37,13.90
2017,06,18,14,38,13.90
2017,06,18,14,39,13.90
2017,06,18,14,40,13.90
2017,06,18,14,41,13.90
2017,06,18,14,42,13.90
2017,06,18,14,43,13.90
2017,06,18,14,44,14.00
2017,06,18,14,45,14.00
2017,06,18,14,46,13.90
2017,06,18,14,47,13.90
2017,06,18,14,48,13.90
2017,06,18,14,49,13.90
2017,06,18,14,50,13.90
2017,06,18,14,51,13.90
2017,06,18,14,52,13.80
2017,06,18,14,53,13.80
2017,06,18,14,54,13.80
2017,06,18,14,55,13.80
2017,06,18,14,56,13.80
2017,06,18,14,57,13.80
2017,06,18,14,58,13.80
2017,06,18,14,59,13.80
2017,06,18,15,00,13.80
2017,06,18,15,01,13.80
2017,06,18,15,02,13.80
2017,06,18,15,03,13.80
2017,06,18,15,04,13.80
2017,06,18,15,05,13.80
2017,06,18,15,06,13.90
2017,06,18,15,07,13.90
2017,06,18,15,08,13.90
2017,06,18,15,09,14.00
2017,06,18,15,10,13.90
2017,06,18,15,11,13.90
2017,06,18,15,12,13.90
2017,06,18,15,13,14.00
2017,06,18,15,14,14.10
2017,06,18,15,15,14.10
2017,06,18,15,16,14.20
2017,06,18,15,17,14.20
2017,06,18,15,18,14.20
2017,06,18,15,19,14.20
2017,06,18,15,20,14.20
2017,06,18,15,21,14.20
2017,06,18,15,22,14.20
2017,06,18,15,23,14.20
2017,06,18,15,24,14.20
2017,06,18,15,25,14.10
2017,06,18,15,26,14.10
2017,06,18,15,27,14.10
2017,06,18,15,28,14.20
2017,06,18,15,29,14.20
2017,06,18,15,30,14.20
2017,06,18,15,31,14.20
2017,06,18,15,32,14.20
2017,06,18,15,33,14.20
2017,06,18,15,34,14.10
2017,06,18,15,35,14.10
2017,06,18,15,36,14.00
2017,06,18,15,37,14.00
2017,06,18,15,38,14.00
2017,06,18,15,39,14.00
2017,06,18,15,40,14.00
2017,06,18,15,41,14.00
2017,06,18,15,42,14.00
2017,06,18,15,43,14.00
2017,06,18,15,44,14.00
2017,06,18,15,45,14.10
2017,06,18,15,46,14.10
2017,06,18,15,47,14.10
2017,06,18,15,48,14.10
2017,06,18,15,49,14.20
2017,06,18,15,50,14.20
2017,06,18,15,51,14.20
2017,06,18,15,52,14.20
2017,06,18,15,53,14.20
2017,06,18,15,54,14.20
2017,06,18,15,55,14.20
2017,06,18,15,56,14.20
2017,06,18,15,57,14.20
2017,06,18,15,58,14.20
2017,06,18,15,59,14.20
2017,06,18,16,00,14.20
2017,06,18,16,01,14.20
2017,06,18,16,02,14.20
2017,06,18,16,03,14.20
2017,06,18,16,04,14.20
2017,06,18,16,05,14.20
2017,06,18,16,06,14.20
2017,06,18,16,07,14.20
2017,06,18,16,08,14.10
2017,06,18,16,09,14.10
2017,06,18,16,10,14.10
2017,06,18,16,11,14.10
2017,06,18,16,12,14.10
2017,06,18,16,13,14.10
2017,06,18,16,14,14.10
2017,06,18,16,15,14.10
2017,06,18,16,16,14.10
2017,06,18,16,17,14.10
2017,06,18,16,18,14.10
2017,06,18,16,19,14.10
2017,06,18,16,20,14.10
2017,06,18,16,21,14.10
2017,06,18,16,22,14.10
2017,06,18,16,23,14.10
2017,06,18,16,24,14.00
2017,06,18,16,25,14.00
2017,06,18,16,26,14.10
2017,06,18,16,27,14.10
2017,06,18,16,28,14.20
2017,06,18,16,29,14.20
2017,06,18,16,30,14.20
2017,06,18,16,31,14.20
2017,06,18,16,32,14.20
2017,06,18,16,33,14.20
2017,06,18,16,34,14.20
2017,06,18,16,35,14.10
2017,06,18,16,36,14.10
2017,06,18,16,37,14.10
2017,06,18,16,38,14.10
2017,06,18,16,39,14.10
2017,06,18,16,40,14.00
2017,06,18,16,41,14.00
2017,06,18,16,42,14.00
2017,06,18,16,43,13.90
2017,06,18,16,44,13.90
2017,06,18,16,45,13.90
2017,06,18,16,46,13.80
2017,06,18,16,47,13.80
2017,06,18,16,48,13.80
2017,06,18,16,49,13.80
2017,06,18,16,50,13.80
2017,06,18,16,51,13.90
2017,06,18,16,52,13.90
2017,06,18,16,53,14.00
2017,06,18,16,54,14.00
2017,06,18,16,55,14.10
2017,06,18,16,56,14.10
2017,06,18,16,57,14.10
2017,06,18,16,58,14.20
2017,06,18,16,59,14.10
2017,06,18,17,00,14.10
2017,06,18,17,01,14.20
2017,06,18,17,02,14.20
2017,06,18,17,03,14.10
2017,06,18,17,04,14.10
2017,06,18,17,05,14.10
2017,06,18,17,06,14.00
2017,06,18,17,07,14.00
2017,06,18,17,08,14.00
2017,06,18,17,09,14.00
2017,06,18,17,10,14.00
2017,06,18,17,11,14.00
2017,06,18,17,12,14.10
2017,06,18,17,13,14.10
2017,06,18,17,14,14.10
2017,06,18,17,15,14.10
2017,06,18,17,16,14.10
2017,06,18,17,17,14.10
2017,06,18,17,18,14.10
2017,06,18,17,19,14.10
2017,06,18,17,20,14.20
2017,06,18,17,21,14.20
2017,06,18,17,22,14.20
2017,06,18,17,23,14.20
2017,06,18,17,24,14.20
2017,06,18,17,25,14.20
2017,06,18,17,26,14.20
2017,06,18,17,27,14.20
2017,06,18,17,28,14.20
2017,06,18,17,29,14.20
2017,06,18,17,30,14.20
2017,06,18,17,31,14.20
2017,06,18,17,32,14.20
2017,06,18,17,33,14.20
2017,06,18,17,34,14.20
2017,06,18,17,35,14.30
2017,06,18,17,36,14.30
2017,06,18,17,37,14.30
2017,06,18,17,38,14.30
2017,06,18,17,39,14.40
2017,06,18,17,40,14.40
2017,06,18,17,41,14.30
2017,06,18,17,42,14.30
2017,06,18,17,43,14.30
2017,06,18,17,44,14.30
2017,06,18,17,45,14.30
2017,06,18,17,46,14.30
2017,06,18,17,47,14.30
2017,06,18,17,48,14.30
2017,06,18,17,49,14.30
2017,06,18,17,50,14.30
2017,06,18,17,51,14.30
2017,06,18,17,52,14.30
2017,06,18,17,53,14.30
2017,06,18,17,54,14.30
2017,06,18,17,55,14.40
2017,06,18,17,56,14.40
2017,06,18,17,57,14.40
2017,06,18,17,58,14.30
2017,06,18,17,59,14.30
2017,06,18,18,00,14.30
2017,06,18,18,01,14.30
2017,06,18,18,02,14.30
2017,06,18,18,03,14.30
2017,06,18,18,04,14.30
2017,06,18,18,05,14.30
2017,06,18,18,06,14.30
2017,06,18,18,07,14.30
2017,06,18,18,08,14.30
2017,06,18,18,09,14.30
2017,06,18,18,10,14.30
2017,06,18,18,11,14.30
2017,06,18,18,12,14.30
2017,06,18,18,13,14.30
2017,06,18,18,14,14.30
2017,06,18,18,15,14.30
2017,06,18,18,16,14.30
2017,06,18,18,17,14.30
